Time,TemperatureF,DewpointF,PressureIn,WindDirection,WindDirectionDegrees,WindSpeedMPH,WindSpeedGustMPH,Humidity,HourlyPrecipIn,Conditions,Clouds,dailyrainin,SoftwareType,DateUTC
2013-04-21 00:11:00,29.3,27.5,30.45,North,359,0.0,0.0,93,0.00,,,0.00,WUHU216PEETBRO,2013-04-21 04:11:00,
2013-04-21 00:12:00,29.3,27.5,30.45,North,359,0.0,0.0,93,0.00,,,0.00,WUHU216PEETBRO,2013-04-21 04:12:00,
2013-04-21 00:17:00,29.3,27.5,30.45,North,359,0.0,0.0,93,0.00,,,0.00,WUHU216PEETBRO,2013-04-21 04:17:00,
2013-04-21 00:41:00,29.1,27.3,30.46,North,359,0.0,0.0,93,0.00,,,0.00,WUHU216PEETBRO,2013-04-21 04:41:00,
2013-04-21 00:46:00,29.1,27.3,30.46,North,359,0.0,0.0,93,0.00,,,0.00,WUHU216PEETBRO,2013-04-21 04:46:00,
2013-04-21 01:11:00,29.2,28.0,30.47,North,359,0.0,0.0,95,0.00,,,0.00,WUHU216PEETBRO,2013-04-21 05:11:00,
2013-04-21 01:16:00,29.2,28.0,30.47,North,359,0.0,0.0,95,0.00,,,0.00,WUHU216PEETBRO,2013-04-21 05:16:00,
2013-04-21 01:41:00,29.3,27.7,30.47,North,359,0.0,0.0,94,0.00,,,0.00,WUHU216PEETBRO,2013-04-21 05:41:00,
2013-04-21 01:46:00,29.3,27.7,30.47,North,359,0.0,0.0,94,0.00,,,0.00,WUHU216PEETBRO,2013-04-21 05:46:00,
2013-04-21 02:11:00,28.8,28.6,30.48,North,359,0.0,0.0,99,0.00,,,0.00,WUHU216PEETBRO,2013-04-21 06:11:00,
2013-04-21 02:16:00,28.8,28.6,30.48,North,359,0.0,0.0,99,0.00,,,0.00,WUHU216PEETBRO,2013-04-21 06:16:00,
2013-04-21 02:41:00,28.2,28.2,30.48,North,359,0.0,0.0,100,0.00,,,0.00,WUHU216PEETBRO,2013-04-21 06:41:00,
2013-04-21 02:46:00,28.2,28.2,30.48,North,359,0.0,0.0,100,0.00,,,0.00,WUHU216PEETBRO,2013-04-21 06:46:00,
2013-04-21 03:11:00,27.6,27.2,30.49,North,359,0.0,0.0,98,0.00,,,0.00,WUHU216PEETBRO,2013-04-21 07:11:00,
2013-04-21 03:16:00,27.6,27.2,30.49,North,359,0.0,0.0,98,0.00,,,0.00,WUHU216PEETBRO,2013-04-21 07:16:00,
2013-04-21 03:41:00,28.3,26.9,30.51,North,359,0.0,0.0,95,0.00,,,0.00,WUHU216PEETBRO,2013-04-21 07:41:00,
2013-04-21 03:46:00,28.3,26.9,30.51,North,359,0.0,0.0,95,0.00,,,0.00,WUHU216PEETBRO,2013-04-21 07:46:00,
2013-04-21 04:11:00,27.4,26.3,30.52,North,359,0.0,0.0,96,0.00,,,0.00,WUHU216PEETBRO,2013-04-21 08:11:00,
2013-04-21 04:16:00,27.4,26.3,30.52,North,359,0.0,0.0,96,0.00,,,0.00,WUHU216PEETBRO,2013-04-21 08:16:00,
2013-04-21 04:41:00,27.8,26.6,30.53,North,359,0.0,0.0,96,0.00,,,0.00,WUHU216PEETBRO,2013-04-21 08:41:00,
2013-04-21 04:46:00,27.8,26.6,30.53,North,359,0.0,0.0,96,0.00,,,0.00,WUHU216PEETBRO,2013-04-21 08:46:00,
2013-04-21 05:11:00,27.7,26.5,30.54,North,359,0.0,0.0,96,0.00,,,0.00,WUHU216PEETBRO,2013-04-21 09:11:00,
2013-04-21 05:16:00,27.7,26.5,30.54,North,359,0.0,0.0,96,0.00,,,0.00,WUHU216PEETBRO,2013-04-21 09:16:00,
2013-04-21 05:41:00,26.8,26.2,30.55,North,359,0.0,0.0,98,0.00,,,0.00,WUHU216PEETBRO,2013-04-21 09:41:00,
2013-04-21 05:46:00,26.8,26.2,30.55,North,359,0.0,0.0,98,0.00,,,0.00,WUHU216PEETBRO,2013-04-21 09:46:00,
2013-04-21 06:11:00,27.4,27.0,30.55,North,359,0.0,0.0,98,0.00,,,0.00,WUHU216PEETBRO,2013-04-21 10:11:00,
2013-04-21 06:16:00,27.4,27.0,30.55,North,359,0.0,0.0,98,0.00,,,0.00,WUHU216PEETBRO,2013-04-21 10:16:00,
2013-04-21 06:41:00,27.0,26.8,30.56,North,359,0.0,0.0,99,0.00,,,0.00,WUHU216PEETBRO,2013-04-21 10:41:00,
2013-04-21 06:46:00,27.0,26.8,30.56,North,359,0.0,0.0,99,0.00,,,0.00,WUHU216PEETBRO,2013-04-21 10:46:00,
2013-04-21 07:11:00,27.5,27.4,30.58,North,359,0.0,0.0,100,0.00,,,0.00,WUHU216PEETBRO,2013-04-21 11:11:00,
2013-04-21 07:16:00,27.5,27.4,30.58,North,359,0.0,0.0,100,0.00,,,0.00,WUHU216PEETBRO,2013-04-21 11:16:00,
2013-04-21 07:41:00,29.2,28.9,30.59,North,359,0.0,0.0,99,0.00,,,0.00,WUHU216PEETBRO,2013-04-21 11:41:00,
2013-04-21 07:46:00,29.2,28.9,30.59,North,359,0.0,0.0,99,0.00,,,0.00,WUHU216PEETBRO,2013-04-21 11:46:00,
2013-04-21 08:11:00,31.3,30.6,30.60,East,90,0.0,0.0,97,0.00,,,0.00,WUHU216PEETBRO,2013-04-21 12:11:00,
2013-04-21 08:16:00,31.3,30.6,30.60,East,90,0.0,0.0,97,0.00,,,0.00,WUHU216PEETBRO,2013-04-21 12:16:00,
2013-04-21 08:41:00,33.0,31.8,30.62,ESE,104,3.4,3.4,96,0.00,,,0.00,WUHU216PEETBRO,2013-04-21 12:41:00,
2013-04-21 08:46:00,33.0,31.8,30.62,ESE,104,3.4,3.4,96,0.00,,,0.00,WUHU216PEETBRO,2013-04-21 12:46:00,
2013-04-21 09:11:00,34.4,32.1,30.62,East,101,2.7,2.7,91,0.00,,,0.00,WUHU216PEETBRO,2013-04-21 13:11:00,
2013-04-21 09:16:00,34.4,32.1,30.62,East,101,2.7,2.7,91,0.00,,,0.00,WUHU216PEETBRO,2013-04-21 13:16:00,
2013-04-21 09:41:00,35.8,29.8,30.62,SSE,166,4.5,4.5,79,0.00,,,0.00,WUHU216PEETBRO,2013-04-21 13:41:00,
2013-04-21 09:46:00,35.8,29.8,30.62,SSE,166,4.5,4.5,79,0.00,,,0.00,WUHU216PEETBRO,2013-04-21 13:46:00,
2013-04-21 09:53:00,36.6,28.8,30.63,SSW,193,3.4,3.4,73,0.00,,,0.00,WUHU216PEETBRO,2013-04-21 13:53:00,
2013-04-21 09:58:00,36.6,28.8,30.63,SSW,193,3.4,3.4,73,0.00,,,0.00,WUHU216PEETBRO,2013-04-21 13:58:00,
2013-04-21 10:12:00,37.4,29.9,30.63,SE,139,0.0,0.0,74,0.00,,,0.00,WUHU216PEETBRO,2013-04-21 14:12:00,
2013-04-21 10:17:00,37.4,29.9,30.63,SE,139,0.0,0.0,74,0.00,,,0.00,WUHU216PEETBRO,2013-04-21 14:17:00,
2013-04-21 10:42:00,37.9,27.8,30.63,SE,129,0.0,0.0,66,0.00,,,0.00,WUHU216PEETBRO,2013-04-21 14:42:00,
2013-04-21 10:47:00,37.9,27.8,30.63,SE,129,0.0,0.0,66,0.00,,,0.00,WUHU216PEETBRO,2013-04-21 14:47:00,
2013-04-21 11:12:00,38.6,27.4,30.63,ESE,117,6.9,6.9,64,0.00,,,0.00,WUHU216PEETBRO,2013-04-21 15:12:00,
2013-04-21 11:17:00,38.6,27.4,30.63,ESE,117,6.9,6.9,64,0.00,,,0.00,WUHU216PEETBRO,2013-04-21 15:17:00,
2013-04-21 11:42:00,39.7,29.1,30.63,SE,135,5.0,5.0,65,0.00,,,0.00,WUHU216PEETBRO,2013-04-21 15:42:00,
2013-04-21 11:47:00,39.7,29.1,30.63,SE,135,5.0,5.0,65,0.00,,,0.00,WUHU216PEETBRO,2013-04-21 15:47:00,
2013-04-21 12:12:00,40.9,30.2,30.63,SSW,199,8.3,8.3,65,0.00,,,0.00,WUHU216PEETBRO,2013-04-21 16:12:00,
2013-04-21 12:17:00,40.9,30.2,30.63,SSW,199,8.3,8.3,65,0.00,,,0.00,WUHU216PEETBRO,2013-04-21 16:17:00,
2013-04-21 12:42:00,41.7,31.2,30.61,South,172,7.0,7.0,66,0.00,,,0.00,WUHU216PEETBRO,2013-04-21 16:42:00,
2013-04-21 12:47:00,41.7,31.2,30.61,South,172,7.0,7.0,66,0.00,,,0.00,WUHU216PEETBRO,2013-04-21 16:47:00,
2013-04-21 13:11:00,41.4,26.2,30.60,ESE,121,6.6,6.6,54,0.00,,,0.00,WUHU216PEETBRO,2013-04-21 17:11:00,
2013-04-21 13:16:00,41.6,26.7,30.60,East,97,3.5,6.6,55,0.00,,,0.00,WUHU216PEETBRO,2013-04-21 17:16:00,
2013-04-21 13:21:00,41.6,26.7,30.60,East,97,3.5,3.5,55,0.00,,,0.00,WUHU216PEETBRO,2013-04-21 17:21:00,
2013-04-21 13:42:00,42.1,28.6,30.60,SE,135,2.8,2.8,58,0.00,,,0.00,WUHU216PEETBRO,2013-04-21 17:42:00,
2013-04-21 13:47:00,42.1,28.6,30.60,SE,135,2.8,2.8,58,0.00,,,0.00,WUHU216PEETBRO,2013-04-21 17:47:00,
2013-04-21 14:12:00,41.8,27.4,30.59,East,86,6.8,6.8,56,0.00,,,0.00,WUHU216PEETBRO,2013-04-21 18:12:00,
2013-04-21 14:17:00,41.8,27.4,30.59,East,86,6.8,6.8,56,0.00,,,0.00,WUHU216PEETBRO,2013-04-21 18:17:00,
2013-04-21 14:42:00,42.6,28.6,30.57,SE,134,3.3,3.3,57,0.00,,,0.00,WUHU216PEETBRO,2013-04-21 18:42:00,
2013-04-21 14:47:00,42.6,28.6,30.57,SE,134,3.3,3.3,57,0.00,,,0.00,WUHU216PEETBRO,2013-04-21 18:47:00,
2013-04-21 15:12:00,43.5,27.9,30.57,SW,214,4.5,4.5,54,0.00,,,0.00,WUHU216PEETBRO,2013-04-21 19:12:00,
2013-04-21 15:17:00,43.5,27.9,30.57,SW,214,4.5,4.5,54,0.00,,,0.00,WUHU216PEETBRO,2013-04-21 19:17:00,
2013-04-21 15:42:00,44.0,31.2,30.56,SSE,162,7.7,7.7,60,0.00,,,0.00,WUHU216PEETBRO,2013-04-21 19:42:00,
2013-04-21 15:47:00,44.0,31.2,30.56,SSE,162,7.7,7.7,60,0.00,,,0.00,WUHU216PEETBRO,2013-04-21 19:47:00,
2013-04-21 16:12:00,43.8,29.6,30.55,ESE,114,4.8,4.8,57,0.00,,,0.00,WUHU216PEETBRO,2013-04-21 20:12:00,
2013-04-21 16:17:00,43.8,29.6,30.55,ESE,114,4.8,4.8,57,0.00,,,0.00,WUHU216PEETBRO,2013-04-21 20:17:00,
2013-04-21 16:42:00,44.3,31.7,30.53,ESE,111,3.3,3.3,61,0.00,,,0.00,WUHU216PEETBRO,2013-04-21 20:42:00,
2013-04-21 16:47:00,44.3,31.7,30.53,ESE,111,3.3,3.3,61,0.00,,,0.00,WUHU216PEETBRO,2013-04-21 20:47:00,
2013-04-21 17:12:00,44.5,32.5,30.52,ESE,117,6.5,6.5,62,0.00,,,0.00,WUHU216PEETBRO,2013-04-21 21:12:00,
2013-04-21 17:17:00,44.5,32.5,30.52,ESE,117,6.5,6.5,62,0.00,,,0.00,WUHU216PEETBRO,2013-04-21 21:17:00,
2013-04-21 17:42:00,43.9,31.9,30.52,SE,124,5.2,5.2,62,0.00,,,0.00,WUHU216PEETBRO,2013-04-21 21:42:00,
2013-04-21 17:47:00,43.9,31.9,30.52,SE,124,5.2,5.2,62,0.00,,,0.00,WUHU216PEETBRO,2013-04-21 21:47:00,
2013-04-21 18:12:00,43.3,30.2,30.51,SSE,160,8.5,8.5,59,0.00,,,0.00,WUHU216PEETBRO,2013-04-21 22:12:00,
2013-04-21 18:17:00,43.1,30.2,30.52,SE,143,6.3,8.5,60,0.00,,,0.00,WUHU216PEETBRO,2013-04-21 22:17:00,
2013-04-21 18:22:00,43.1,30.2,30.52,SE,143,6.3,6.3,60,0.00,,,0.00,WUHU216PEETBRO,2013-04-21 22:22:00,
2013-04-21 18:42:00,42.7,30.8,30.51,South,180,6.5,6.5,62,0.00,,,0.00,WUHU216PEETBRO,2013-04-21 22:42:00,
2013-04-21 18:47:00,42.7,30.8,30.51,South,180,6.5,6.5,62,0.00,,,0.00,WUHU216PEETBRO,2013-04-21 22:47:00,
2013-04-21 19:12:00,41.9,30.0,30.51,SSE,160,2.5,2.5,62,0.00,,,0.00,WUHU216PEETBRO,2013-04-21 23:12:00,
2013-04-21 19:17:00,41.9,30.0,30.51,SSE,160,2.5,2.5,62,0.00,,,0.00,WUHU216PEETBRO,2013-04-21 23:17:00,
2013-04-21 19:42:00,41.1,28.4,30.50,SE,131,3.4,3.4,60,0.00,,,0.00,WUHU216PEETBRO,2013-04-21 23:42:00,
2013-04-21 19:47:00,41.1,28.4,30.50,SE,131,3.4,3.4,60,0.00,,,0.00,WUHU216PEETBRO,2013-04-21 23:47:00,
2013-04-21 20:12:00,40.4,28.0,30.51,SSE,159,4.6,4.6,61,0.00,,,0.00,WUHU216PEETBRO,2013-04-22 00:12:00,
2013-04-21 20:17:00,40.4,28.0,30.51,SSE,159,4.6,4.6,61,0.00,,,0.00,WUHU216PEETBRO,2013-04-22 00:17:00,
2013-04-21 20:42:00,39.7,28.0,30.51,ESE,103,0.0,0.0,62,0.00,,,0.00,WUHU216PEETBRO,2013-04-22 00:42:00,
2013-04-21 20:47:00,39.7,28.0,30.51,ESE,103,0.0,0.0,62,0.00,,,0.00,WUHU216PEETBRO,2013-04-22 00:47:00,
2013-04-21 21:12:00,38.9,26.0,30.51,ESE,114,0.0,0.0,59,0.00,,,0.00,WUHU216PEETBRO,2013-04-22 01:12:00,
2013-04-21 21:17:00,38.9,26.0,30.51,ESE,114,0.0,0.0,59,0.00,,,0.00,WUHU216PEETBRO,2013-04-22 01:17:00,
2013-04-21 21:42:00,38.2,25.2,30.51,SE,128,5.1,5.1,59,0.00,,,0.00,WUHU216PEETBRO,2013-04-22 01:42:00,
2013-04-21 21:47:00,38.2,25.2,30.51,SE,128,5.1,5.1,59,0.00,,,0.00,WUHU216PEETBRO,2013-04-22 01:47:00,
2013-04-21 22:12:00,37.7,25.7,30.51,SSE,155,5.4,5.4,61,0.00,,,0.00,WUHU216PEETBRO,2013-04-22 02:12:00,
2013-04-21 22:17:00,37.7,25.7,30.51,SSE,155,5.4,5.4,61,0.00,,,0.00,WUHU216PEETBRO,2013-04-22 02:17:00,
2013-04-21 22:42:00,37.2,27.6,30.50,ESE,121,3.2,3.2,68,0.00,,,0.00,WUHU216PEETBRO,2013-04-22 02:42:00,
2013-04-21 22:47:00,37.2,27.6,30.50,ESE,121,3.2,3.2,68,0.00,,,0.00,WUHU216PEETBRO,2013-04-22 02:47:00,
2013-04-21 23:12:00,36.5,28.5,30.50,ESE,118,0.0,0.0,72,0.00,,,0.00,WUHU216PEETBRO,2013-04-22 03:12:00,
2013-04-21 23:17:00,36.5,28.5,30.50,ESE,118,0.0,0.0,72,0.00,,,0.00,WUHU216PEETBRO,2013-04-22 03:17:00,
2013-04-21 23:42:00,35.9,28.3,30.49,SSE,149,0.0,0.0,74,0.00,,,0.00,WUHU216PEETBRO,2013-04-22 03:42:00,
2013-04-21 23:47:00,35.9,28.3,30.49,SSE,149,0.0,0.0,74,0.00,,,0.00,WUHU216PEETBRO,2013-04-22 03:47:00,